Kamloops Airport
CYKA : now visible

Airfield :











YOU CAN JOIN US ON...

 
LOGIN :

Register | Disclaimer

   EN    FR    IT 

 









Legend :    VFR   Marginal VFR   IFR   Intensive IFR   Very Intensive IFR
Visi :
Ceiling :
>= 8 km
>= 3000ft
5 to 8 km
1000 to 3000 ft
1500m to 5 km
500 to 1000 ft
800 to 1500m
200 to 500 ft
< 800m
< 200 ft
Symbols :   Thunderstorms  Fog  Heavy snow  Heavy precipitations  Wind > 20 kt






- Airport Elevation : 1133 ft
- IATA code : YKA


CYKA - Kamloops

CURRENT METAR :
  • 190900Z 00000KT 40SM BKN250 18/07 A2990 RMK CI7 SLP123 DENSITY ALT 1800FT

EXPIRED METARs :
  • 190800Z VRB02KT 40SM BKN270 17/07 A2989 RMK CI7 SLP120 DENSITY ALT 1700FT
  • 190700Z 00000KT 40SM BKN270 19/08 A2989 RMK CI7 SLP119 DENSITY ALT 1900FT

TAF TAF CYKA
Valid from the 19 at 07:00 until the 19 at 19:00 UTC


190638Z 1907/1919 VRB03KT P6SM SCT120 BKN250
TEMPO 1907/1915 26006KT BKN100
FM191500 27008KT P6SM SCT070 OVC100 RMK NXT FCST BY 191300Z
CZVR FIR / North America



MET'MAP, your aeronautical weather chart ! - Copyright ORBIFLY December 2007 - Disclaimer

ORBIFLY MET'MAP TEAM :

Programming & Development : Alexandra Zaïnal
Concept & original design : Baudouin d'Aumeries
Assistance for programming : Marc-Olivier Méhu
Technical & hardware support : Manuel Goepfert

Contact : metmap@orbifly.com




SOURCES & CREDITS :

   NOAA       Earth
Advisory